Weather History for Marshfield, MA

Change the Weather History Date:

Saturday, March 23, 2013

  Actual Average (KPYM) Record (KPYM)
Temperature  
Mean Temperature 38 °F -  
Max Temperature 44 °F 45 °F 75 °F (2012)
Min Temperature 32 °F 27 °F 12 °F (1988)
Degree Days  
Heating Degree Days 27    
Moisture  
Dew Point 20 °F    
Average Humidity 51    
Maximum Humidity 69    
Minimum Humidity 34    
Precipitation  
Precipitation 0.00 in - - ()
Sea Level Pressure  
Sea Level Pressure 29.71 in    
Wind  
Wind Speed 10 mph (West)    
Max Wind Speed 17 mph    
Max Gust Speed 30 mph    
Visibility 10 miles    
Events      
Averages and records for this station are not official NWS values.
T = Trace of Precipitation, MM = Missing Value Source: NWS Daily Summary

Daily Weather History Graph

Daily Weather History Graph

Search for Another Location

Airport:

Trip Planner

Search our weather history database for the weather conditions in past years. The results will help you decide how hot, cold, wet, or windy it might be!

Date:

Astronomy

Mar. 23, 2013 Rise Set
Actual Time 6:40 AM EDT 6:58 PM EDT
Civil Twilight 6:12 AM EDT 7:26 PM EDT
Nautical Twilight 5:39 AM EDT 7:59 PM EDT
Astronomical Twilight 5:06 AM EDT 8:33 PM EDT
Moon 3:18 PM EDT (3/23) 4:18 AM EDT (3/23)
Length of Visible Light 13h 14m
Length of Day
12h 18m
Waxing Gibbous, 85% of the Moon is Illuminated
Mar 23
Waxing Gibbous
Mar 27
Full
Apr 3
Last Quarter
Apr 10
New
Apr 18
First Quarter

Hourly Weather History & Observations

Time (EDT) Temp. Windchill Dew Point Humidity Pressure Visibility Wind Dir Wind Speed Gust Speed Precip Events Conditions
12:15 AM 32.0 °F 23.6 °F 21.2 °F 64% 29.75 in 10.0 mi WSW 10.4 mph - N/A   Clear
12:35 AM 32.0 °F 23.0 °F 21.2 °F 64% 29.75 in 10.0 mi WSW 11.5 mph - N/A   Clear
12:55 AM 32.0 °F 23.6 °F 21.2 °F 64% 29.74 in 10.0 mi West 10.4 mph 18.4 mph N/A   Clear
1:15 AM 32.0 °F 23.6 °F 21.2 °F 64% 29.74 in 10.0 mi West 10.4 mph 18.4 mph N/A   Clear
1:35 AM 32.0 °F 24.2 °F 21.2 °F 64% 29.74 in 10.0 mi West 9.2 mph 18.4 mph N/A   Clear
1:55 AM 32.0 °F 23.0 °F 21.2 °F 64% 29.75 in 10.0 mi West 11.5 mph 16.1 mph N/A   Clear
2:15 AM 32.0 °F 24.8 °F 21.2 °F 64% 29.75 in 10.0 mi West 8.1 mph - N/A   Clear
2:35 AM 32.0 °F 24.8 °F 21.2 °F 64% 29.75 in 10.0 mi West 8.1 mph - N/A   Clear
2:55 AM 32.0 °F 26.4 °F 21.2 °F 64% 29.75 in 10.0 mi West 5.8 mph - N/A   Clear
3:15 AM 32.0 °F 23.6 °F 19.4 °F 60% 29.74 in 10.0 mi West 10.4 mph - N/A   Clear
3:35 AM 32.0 °F 26.4 °F 19.4 °F 60% 29.74 in 10.0 mi WSW 5.8 mph - N/A   Clear
3:55 AM 32.0 °F 25.6 °F 19.4 °F 60% 29.74 in 10.0 mi WSW 6.9 mph - N/A   Clear
4:15 AM 32.0 °F 23.6 °F 19.4 °F 60% 29.73 in 10.0 mi WSW 10.4 mph - N/A   Clear
4:35 AM 32.0 °F 25.6 °F 21.2 °F 64% 29.73 in 10.0 mi West 6.9 mph 16.1 mph N/A   Clear
4:55 AM 32.0 °F 24.2 °F 21.2 °F 64% 29.73 in 10.0 mi West 9.2 mph - N/A   Clear
5:15 AM 32.0 °F 23.6 °F 21.2 °F 64% 29.73 in 10.0 mi WSW 10.4 mph 19.6 mph N/A   Clear
5:35 AM 32.0 °F 24.2 °F 21.2 °F 64% 29.73 in 10.0 mi WSW 9.2 mph - N/A   Clear
5:55 AM 32.0 °F 25.6 °F 23.0 °F 69% 29.73 in 10.0 mi West 6.9 mph 17.3 mph N/A   Clear
6:15 AM 32.0 °F 24.8 °F 23.0 °F 69% 29.73 in 10.0 mi WSW 8.1 mph - N/A   Clear
6:35 AM 32.0 °F 24.8 °F 23.0 °F 69% 29.73 in 10.0 mi WSW 8.1 mph - N/A   Clear
6:55 AM 32.0 °F 26.4 °F 23.0 °F 69% 29.73 in 10.0 mi WSW 5.8 mph - N/A   Clear
7:15 AM 32.0 °F 25.6 °F 23.0 °F 69% 29.73 in 10.0 mi WSW 6.9 mph - N/A   Clear
7:35 AM 32.0 °F 25.6 °F 23.0 °F 69% 29.73 in 10.0 mi WSW 6.9 mph - N/A   Clear
7:55 AM 33.8 °F 27.7 °F 23.0 °F 65% 29.72 in 10.0 mi WSW 6.9 mph - N/A   Clear
8:15 AM 35.6 °F 27.5 °F 23.0 °F 60% 29.72 in 10.0 mi WSW 11.5 mph 18.4 mph N/A   Clear
8:35 AM 35.6 °F 28.0 °F 23.0 °F 60% 29.71 in 10.0 mi WSW 10.4 mph 19.6 mph N/A   Clear
8:55 AM 37.4 °F 30.3 °F 23.0 °F 56% 29.71 in 10.0 mi WSW 10.4 mph 16.1 mph N/A   Clear
9:15 AM 37.4 °F 29.8 °F 23.0 °F 56% 29.71 in 10.0 mi West 11.5 mph 24.2 mph N/A   Clear
9:35 AM 37.4 °F 28.5 °F 23.0 °F 56% 29.70 in 10.0 mi West 15.0 mph 29.9 mph N/A   Clear
9:55 AM 39.2 °F 30.8 °F 23.0 °F 52% 29.71 in 10.0 mi West 15.0 mph 21.9 mph N/A   Clear
10:15 AM 39.2 °F 31.2 °F 21.2 °F 49% 29.70 in 10.0 mi West 13.8 mph 20.7 mph N/A   Clear
10:35 AM 39.2 °F 30.8 °F 21.2 °F 49% 29.70 in 10.0 mi West 15.0 mph 24.2 mph N/A   Partly Cloudy
10:55 AM 39.2 °F 32.0 °F 19.4 °F 45% 29.70 in 10.0 mi West 11.5 mph 24.2 mph N/A   Mostly Cloudy
11:15 AM 39.2 °F 31.2 °F 19.4 °F 45% 29.69 in 10.0 mi West 13.8 mph 21.9 mph N/A   Mostly Cloudy
11:35 AM 39.2 °F 30.8 °F 21.2 °F 49% 29.69 in 10.0 mi West 15.0 mph 27.6 mph N/A   Mostly Cloudy
11:55 AM 39.2 °F 31.6 °F 21.2 °F 49% 29.68 in 10.0 mi WSW 12.7 mph 17.3 mph N/A   Mostly Cloudy
12:15 PM 41.0 °F 34.3 °F 19.4 °F 42% 29.67 in 10.0 mi West 11.5 mph 20.7 mph N/A   Scattered Clouds
12:35 PM 41.0 °F 33.5 °F 19.4 °F 42% 29.67 in 10.0 mi West 13.8 mph 25.3 mph N/A   Partly Cloudy
12:55 PM 42.8 °F 35.4 °F 19.4 °F 39% 29.67 in 10.0 mi West 15.0 mph 25.3 mph N/A   Clear
1:15 PM 42.8 °F 35.8 °F 19.4 °F 39% 29.67 in 10.0 mi West 13.8 mph 25.3 mph N/A   Partly Cloudy
1:35 PM 42.8 °F 35.8 °F 19.4 °F 39% 29.67 in 10.0 mi West 13.8 mph 27.6 mph N/A   Scattered Clouds
1:55 PM 41.0 °F 35.2 °F 19.4 °F 42% 29.67 in 10.0 mi WSW 9.2 mph 20.7 mph N/A   Scattered Clouds
2:15 PM 41.0 °F 32.8 °F 19.4 °F 42% 29.66 in 10.0 mi West 16.1 mph 28.8 mph N/A   Scattered Clouds
2:35 PM 42.8 °F 35.1 °F 19.4 °F 39% 29.66 in 10.0 mi West 16.1 mph 27.6 mph N/A   Scattered Clouds
2:55 PM 44.6 °F 38.1 °F 19.4 °F 37% 29.65 in 10.0 mi West 13.8 mph 23.0 mph N/A   Scattered Clouds
3:15 PM 44.6 °F 39.7 °F 19.4 °F 37% 29.65 in 10.0 mi West 9.2 mph 24.2 mph N/A   Partly Cloudy
3:35 PM 44.6 °F 37.8 °F 17.6 °F 34% 29.65 in 10.0 mi West 15.0 mph 24.2 mph N/A   Scattered Clouds
3:55 PM 44.6 °F 39.7 °F 19.4 °F 37% 29.65 in 10.0 mi WNW 9.2 mph 24.2 mph N/A   Scattered Clouds
4:15 PM 42.8 °F 35.8 °F 17.6 °F 36% 29.65 in 10.0 mi West 13.8 mph 26.5 mph N/A   Mostly Cloudy
4:35 PM 42.8 °F 35.1 °F 19.4 °F 39% 29.65 in 10.0 mi West 16.1 mph 26.5 mph N/A   Partly Cloudy
4:55 PM 42.8 °F 34.8 °F 19.4 °F 39% 29.65 in 10.0 mi West 17.3 mph 24.2 mph N/A   Partly Cloudy
5:15 PM 44.6 °F 37.4 °F 19.4 °F 37% 29.65 in 10.0 mi West 16.1 mph 27.6 mph N/A   Partly Cloudy
5:35 PM 44.6 °F 40.2 °F 19.4 °F 37% 29.66 in 10.0 mi West 8.1 mph 19.6 mph N/A   Clear
5:55 PM 42.8 °F 36.6 °F 19.4 °F 39% 29.67 in 10.0 mi West 11.5 mph 19.6 mph N/A   Clear
6:15 PM 42.8 °F 36.6 °F 21.2 °F 42% 29.68 in 10.0 mi West 11.5 mph 16.1 mph N/A   Clear
6:35 PM 42.8 °F 38.6 °F 19.4 °F 39% 29.69 in 10.0 mi West 6.9 mph - N/A   Partly Cloudy
6:55 PM 42.8 °F 37.5 °F 17.6 °F 36% 29.70 in 10.0 mi WNW 9.2 mph 18.4 mph N/A   Clear
7:15 PM 41.0 °F 35.8 °F 19.4 °F 42% 29.72 in 10.0 mi WNW 8.1 mph - N/A   Clear
7:35 PM 39.2 °F 35.0 °F 19.4 °F 45% 29.73 in 10.0 mi WNW 5.8 mph - N/A   Clear
7:55 PM 39.2 °F 35.9 °F 19.4 °F 45% 29.74 in 10.0 mi West 4.6 mph - N/A   Partly Cloudy
8:15 PM 39.2 °F 35.0 °F 19.4 °F 45% 29.75 in 10.0 mi WNW 5.8 mph - N/A   Partly Cloudy
8:35 PM 39.2 °F 32.5 °F 19.4 °F 45% 29.76 in 10.0 mi WNW 10.4 mph 18.4 mph N/A   Clear
8:55 PM 39.2 °F 31.6 °F 19.4 °F 45% 29.77 in 10.0 mi WNW 12.7 mph 20.7 mph N/A   Clear
9:15 PM 39.2 °F 33.0 °F 19.4 °F 45% 29.77 in 10.0 mi West 9.2 mph - N/A   Clear
9:35 PM 39.2 °F 33.6 °F 19.4 °F 45% 29.77 in 10.0 mi West 8.1 mph 16.1 mph N/A   Clear
9:55 PM 37.4 °F 28.9 °F 19.4 °F 48% 29.77 in 10.0 mi West 13.8 mph - N/A   Clear
10:15 PM 37.4 °F 29.3 °F 19.4 °F 48% 29.76 in 10.0 mi West 12.7 mph 20.7 mph N/A   Clear
10:35 PM 37.4 °F 31.4 °F 19.4 °F 48% 29.78 in 10.0 mi West 8.1 mph - N/A   Clear
10:55 PM 37.4 °F 30.8 °F 19.4 °F 48% 29.77 in 10.0 mi West 9.2 mph - N/A   Clear
11:15 PM 37.4 °F 31.4 °F 19.4 °F 48% 29.77 in 10.0 mi West 8.1 mph 16.1 mph N/A   Clear
11:35 PM 37.4 °F 31.4 °F 19.4 °F 48% 29.77 in 10.0 mi West 8.1 mph 16.1 mph N/A   Clear
11:55 PM 35.6 °F 29.2 °F 19.4 °F 52% 29.78 in 10.0 mi WSW 8.1 mph - N/A   Clear